Houston Hull, TX

10:19 PM CST on December 06, 2019 (GMT -0600)
Sugar Land Municipal-Hull

Weather History for KSGR - October, 2019

Change the Weather History Date:

Thursday, October 24, 2019

  Actual Average Record
Temperature  
Mean Temperature 74 °F -  
Max Temperature 82 °F 79 °F 90 °F (1947)
Min Temperature 66 °F 58 °F 41 °F (1982)
Cooling Degree Days 9    
Growing Degree Days 24 (Base 50)    
Moisture  
Dew Point 68 °F    
Average Humidity 82    
Maximum Humidity 91    
Minimum Humidity 67    
Precipitation  
Precipitation 0.00 in - - ()
Sea Level Pressure  
Sea Level Pressure 29.96 in    
Wind  
Wind Speed 8 mph (East)    
Max Wind Speed 16 mph    
Max Gust Speed 21 mph    
Visibility 10 miles    
Events      
Averages and records for this station are not official NWS values.
T = Trace of Precipitation, MM = Missing Value Source: NWS Daily Summary

Daily Weather History Graph

Daily Weather History Graph

Search for Another Location

Airport or City:

Astronomy

Oct. 24, 2019 Rise Set
Actual Time 7:30 AM CDT 6:43 PM CDT
Civil Twilight 7:05 AM CDT 7:07 PM CDT
Nautical Twilight 6:37 AM CDT 7:35 PM CDT
Astronomical Twilight 6:10 AM CDT 8:03 PM CDT
Moon 3:28 AM CDT (10/24) 4:47 PM CDT (10/24)
Length of Visible Light 12h 01m
Length of Day
11h 13m
Waning Crescent, 16% of the Moon is Illuminated
Oct 24
Waning Crescent
Oct 27
New
Nov 4
First Quarter
Nov 12
Full
Nov 19
Last Quarter

Hourly Weather History & Observations

Time (CDT) Temp. Heat Index Dew Point Humidity Pressure Visibility Wind Dir Wind Speed Gust Speed Precip Events Conditions
12:53 AM 66.9 °F - 62.1 °F 84% 30.01 in 10.0 mi East 5.8 mph - N/A   Clear
1:53 AM 66.9 °F - 62.1 °F 84% 30.00 in 10.0 mi East 4.6 mph - N/A   Clear
2:53 AM 68.0 °F - 63.0 °F 84% 30.00 in 10.0 mi East 5.8 mph - N/A   Clear
3:53 AM 68.0 °F - 64.0 °F 87% 29.99 in 10.0 mi East 6.9 mph - N/A   Scattered Clouds
4:53 AM 69.1 °F - 64.0 °F 84% 29.98 in 10.0 mi East 5.8 mph - N/A   Mostly Cloudy
5:53 AM 69.1 °F - 64.9 °F 87% 29.99 in 10.0 mi ESE 6.9 mph - N/A   Overcast
6:53 AM 68.0 °F - 64.9 °F 90% 29.99 in 10.0 mi ENE 6.9 mph - N/A   Partly Cloudy
7:53 AM 68.0 °F - 64.9 °F 90% 30.01 in 10.0 mi ENE 5.8 mph - N/A   Scattered Clouds
8:53 AM 69.1 °F - 64.0 °F 84% 30.02 in 10.0 mi East 8.1 mph - N/A   Clear
9:53 AM 73.9 °F - 66.0 °F 76% 30.03 in 10.0 mi East 8.1 mph - N/A   Clear
10:53 AM 78.1 °F - 68.0 °F 71% 30.03 in 10.0 mi ESE 8.1 mph - N/A   Clear
11:53 AM 80.1 °F 82.9 °F 69.1 °F 69% 30.01 in 10.0 mi ESE 11.5 mph - N/A   Partly Cloudy
12:53 PM 81.0 °F 84.1 °F 69.1 °F 67% 29.99 in 10.0 mi ESE 11.5 mph 17.3 mph N/A   Overcast
1:53 PM 82.0 °F 85.9 °F 70.0 °F 67% 29.96 in 10.0 mi East 11.5 mph - N/A   Mostly Cloudy
2:53 PM 82.0 °F 85.9 °F 70.0 °F 67% 29.94 in 10.0 mi East 16.1 mph - N/A   Overcast
3:09 PM 82.0 °F 86.3 °F 71.1 °F 69% 29.93 in 10.0 mi ESE 12.7 mph - N/A   Overcast
3:53 PM 80.1 °F 83.2 °F 70.0 °F 71% 29.93 in 10.0 mi ESE 13.8 mph - N/A   Scattered Clouds
4:53 PM 79.0 °F - 69.1 °F 72% 29.92 in 10.0 mi East 13.8 mph 20.7 mph N/A   Mostly Cloudy
5:53 PM 79.0 °F - 68.0 °F 69% 29.92 in 10.0 mi ESE 10.4 mph - N/A   Partly Cloudy
6:53 PM 75.9 °F - 70.0 °F 82% 29.92 in 10.0 mi East 10.4 mph - N/A   Partly Cloudy
7:36 PM 75.0 °F - 70.0 °F 84% 29.91 in 10.0 mi East 10.4 mph - N/A   Mostly Cloudy
7:53 PM 75.0 °F - 70.0 °F 84% 29.91 in 10.0 mi East 10.4 mph - N/A   Mostly Cloudy
8:01 PM 75.0 °F - 70.0 °F 84% 29.90 in 10.0 mi ESE 13.8 mph 19.6 mph N/A   Scattered Clouds
8:53 PM 73.9 °F - 71.1 °F 91% 29.88 in 10.0 mi ESE 12.7 mph - N/A   Mostly Cloudy
9:12 PM 73.9 °F - 71.1 °F 91% 29.88 in 10.0 mi ESE 9.2 mph 18.4 mph N/A   Scattered Clouds
9:46 PM 73.9 °F - 71.1 °F 91% 29.90 in 10.0 mi ESE 9.2 mph - N/A   Mostly Cloudy
9:53 PM 73.9 °F - 71.1 °F 91% 29.91 in 10.0 mi East 6.9 mph - N/A   Mostly Cloudy
10:53 PM 73.9 °F - 71.1 °F 91% 29.95 in 10.0 mi ENE 10.4 mph - N/A   Overcast
11:12 PM 73.9 °F - 70.0 °F 87% 29.94 in 10.0 mi ENE 9.2 mph - 0.00 in   Overcast
11:42 PM 73.0 °F - 70.0 °F 90% 29.94 in 10.0 mi NE 6.9 mph - 0.00 in   Overcast
11:53 PM 73.0 °F - 70.0 °F 90% 29.95 in 10.0 mi ENE 8.1 mph - 0.00 in   Overcast